Location: Newark
(40.7360°N, 74.1730°W)
Time: 20:33:31
(UTC-05:00)

ISS - All Passes

Search period start: 26 November 2014 00:00
Search period end: 06 December 2014 00:00
Orbit: 407 x 417 km, 51.6° (Epoch: 26 November)

Date Brightness Start Highest point End Pass type
(mag) Time Alt. Az. Time Alt. Az. Time Alt. Az.
26 Nov - 01:10:36 10° WNW 01:13:00 18° NNW 01:15:24 10° NNE night (unlit)
26 Nov - 02:49:08 10° NNW 02:50:39 13° N 02:52:10 10° NNE night (unlit)
26 Nov - 04:25:29 10° NNW 04:28:12 23° NNE 04:30:56 10° ENE visible
26 Nov - 06:01:49 10° WNW 06:05:03 57° SW 06:08:17 10° SE visible
26 Nov - 22:43:01 10° SW 22:46:12 52° SE 22:49:25 10° ENE night (unlit)
27 Nov - 00:20:15 10° W 00:23:01 24° NNW 00:25:47 10° NE night (unlit)
27 Nov - 01:59:02 10° NNW 02:00:33 13° N 02:02:05 10° NNE night (unlit)
27 Nov - 03:35:52 10° NNW 03:38:13 18° NNE 03:40:34 10° ENE visible
27 Nov - 05:11:59 10° NW 05:15:17 78° NE 05:18:35 10° ESE visible
27 Nov - 06:50:23 10° WSW 06:51:29 11° SW 06:52:35 10° SSW daylight
27 Nov - 21:53:38 10° SSW 21:56:29 28° SE 21:59:21 10° ENE night (unlit)
27 Nov - 23:30:00 10° W 23:33:03 35° NNW 23:36:07 10° NE night (unlit)
28 Nov - 01:08:40 10° NW 01:10:26 14° N 01:12:12 10° NNE night (unlit)
28 Nov - 02:46:10 10° NNW 02:48:08 15° NNE 02:50:06 10° NE night (unlit)
28 Nov - 04:22:14 10° NW 04:25:25 45° NNE 04:28:36 10° ESE visible
28 Nov - 05:59:20 10° W 06:01:51 20° SW 06:04:22 10° S visible
28 Nov - 21:04:46 10° S 21:06:48 16° SE 21:08:50 10° E night (unlit)
28 Nov - 22:39:53 10° WSW 22:43:07 57° NNW 22:46:22 10° NE night (unlit)
29 Nov - 00:18:10 10° NW 00:20:18 16° NNW 00:22:26 10° NNE night (unlit)
29 Nov - 01:56:21 10° NNW 01:57:59 13° N 01:59:37 10° NE night (unlit)
29 Nov - 03:32:30 10° NW 03:35:26 29° NNE 03:38:22 10° E visible
29 Nov - 05:09:03 10° WNW 05:12:07 37° SW 05:15:11 10° SSE visible
29 Nov - 21:49:56 10° SW 21:53:13 79° SE 21:56:30 10° NE night (unlit)
29 Nov - 23:27:38 10° WNW 23:30:10 20° NNW 23:32:42 10° NNE night (unlit)
30 Nov - 01:06:17 10° NNW 01:07:46 12° N 01:09:16 10° NNE night (unlit)
30 Nov - 02:42:46 10° NNW 02:45:22 21° NNE 02:47:58 10° ENE night (unlit)
30 Nov - 04:19:00 10° WNW 04:22:17 71° SW 04:25:33 10° SE visible
30 Nov - 21:00:13 10° SSW 21:03:20 41° SE 21:06:27 10° ENE night (unlit)
30 Nov - 22:37:10 10° W 22:40:03 27° NNW 22:42:56 10° NE night (unlit)
01 Dec - 00:15:56 10° NW 00:17:31 13° N 00:19:07 10° NNE night (unlit)
01 Dec - 01:52:59 10° NNW 01:55:12 17° NNE 01:57:24 10° ENE night (unlit)
01 Dec - 03:29:03 10° NW 03:32:20 64° NE 03:35:36 10° ESE night (unlit)
01 Dec - 05:06:48 10° W 05:08:36 14° SW 05:10:24 10° SSW visible
01 Dec - 20:10:50 10° S 20:13:29 23° SE 20:16:08 10° E night (unlit)
01 Dec - 21:46:49 10° WSW 21:49:57 41° NNW 21:53:06 10° NE night (unlit)
01 Dec - 23:25:22 10° NW 23:27:15 14° N 23:29:09 10° NNE night (unlit)
02 Dec - 01:03:07 10° NNW 01:04:57 14° N 01:06:46 10° NE night (unlit)
02 Dec - 02:39:10 10° NW 02:42:17 38° NNE 02:45:23 10° E night (unlit)
02 Dec - 04:16:02 10° WNW 04:18:48 25° SW 04:21:33 10° SSE visible
02 Dec - 19:22:11 10° SSE 19:23:40 13° SE 19:25:09 10° ESE night (unlit)
02 Dec - 20:56:36 10° WSW 20:59:53 71° NW 21:03:10 10° NE night (unlit)
02 Dec - 22:34:42 10° WNW 22:36:59 17° NNW 22:39:16 10° NNE night (unlit)
03 Dec - 00:13:04 10° NNW 00:14:38 13° N 00:16:11 10° NNE night (unlit)
03 Dec - 01:49:18 10° NW 01:52:08 26° NNE 01:54:57 10° E night (unlit)
03 Dec - 03:25:42 10° WNW 03:28:53 46° SW 03:32:03 10° SSE night (unlit)
03 Dec - 20:06:35 10° SW 20:09:50 63° SE 20:13:06 10° ENE night (unlit)
03 Dec - 21:44:02 10° WNW 21:46:42 22° NNW 21:49:22 10° NNE night (unlit)
03 Dec - 23:22:46 10° NNW 23:24:16 12° N 23:25:45 10° NNE night (unlit)
04 Dec - 00:59:25 10° NNW 01:01:52 19° NNE 01:04:20 10° ENE night (unlit)
04 Dec - 02:35:34 10° NW 02:38:52 88° SW 02:42:09 10° SE night (unlit)
04 Dec - 19:16:51 10° SSW 19:19:50 33° SE 19:22:50 10° ENE visible
04 Dec - 20:53:28 10° W 20:56:27 31° NNW 20:59:27 10° NE night (unlit)
04 Dec - 22:32:10 10° NW 22:33:51 13° N 22:35:33 10° NNE night (unlit)
05 Dec - 00:09:28 10° NNW 00:11:32 15° NNE 00:13:36 10° NE night (unlit)
05 Dec - 01:45:31 10° NW 01:48:45 52° NNE 01:51:57 10° ESE night (unlit)
05 Dec - 03:22:50 10° W 03:25:05 17° SW 03:27:21 10° S night (unlit)
05 Dec - 18:27:31 10° S 18:29:51 18° SE 18:32:12 10° E visible
05 Dec - 20:03:01 10° WSW 20:06:13 50° NNW 20:09:26 10° NE night (unlit)
05 Dec - 21:41:24 10° NW 21:43:26 15° NNW 21:45:29 10° NNE night (unlit)
05 Dec - 23:19:24 10° NNW 23:21:07 13° N 23:22:49 10° NE night (unlit)
